Miscellaneous Local Product
Issued by NWS North Platte, NE

Home | Current Version | Previous Version | Text Only | Print | Product List | Glossary On
Versions: 1 2 3 4 5 6 7 8 9 10 11 12 13 14 15 16 17 18 19 20 21 22 23 24 25 26 27 28 29 30 31 32 33 34 35 36 37 38 39 40 41 42 43 44 45 46 47 48 49 50
911
AXUS43 KLBF 290210
MISLBF


WESTERN AND NORTH CENTRAL NEBRASKA HOURLY WEATHER ROUNDUP
NATIONAL WEATHER SERVICE NORTH PLATTE NE
900 PM CDT TUE MAR 28 2017

NOTE: "FAIR" INDICATES FEW OR NO CLOUDS BELOW 12,000 FEET WITH NO
SIGNIFICANT WEATHER AND/OR OBSTRUCTIONS TO VISIBILITY.

NOTE: STATIONS NOT REPORTING VARIABLES SUCH AS SKY/WEATHER OR
PRESSURE ARE PROVIDED BY RAWS AND APRS NETWORKS AND ARE NOT UNDER
NATIONAL WEATHER SERVICE QUALITY CONTROL.

...OBSERVATIONS IN AND NEAR THE EASTERN PANHANDLE OF NEBRASKA...

CITY           SKY/WX    TMP DP  RH WIND       PRES   REMARKS
PINE RIDGE     LGT RAIN  42  41  96 E3        30.11R
CHADRON        CLOUDY    42  39  89 E7        30.11R
ALLIANCE       LGT RAIN  40  38  93 E8        30.08R WCI  34
SIDNEY         LGT RAIN  39  38  96 E10       30.05R WCI  32
CRESCENT LAKE    N/A     39  39 100 E8          N/A  WCI  33
$$

...OBSERVATIONS IN NORTHERN NEBRASKA AND FAR SOUTHERN SOUTH DAKOTA...

CITY           SKY/WX    TMP DP  RH WIND       PRES   REMARKS
WINNER         LGT RAIN  48  41  76 S9        30.16R
VALENTINE      CLOUDY    43  40  89 NE10      30.13F
THEDFORD       DRIZZLE   43  42  97 NE3       30.10S
AINSWORTH      LGT RAIN  43  43  99 NE9       30.12S
O`NEILL        CLOUDY    49  42  76 N6        30.11R
ORD            CLOUDY    47  40  76 CALM      30.08S
BROKEN BOW     LGT RAIN  46  40  79 NE6       30.07S
VALENTINE NWR    N/A     44  43  98 NE8         N/A
HALSEY           N/A     43  43 100 CALM        N/A
BUTTE            N/A     47  40  77 NE3         N/A
CHAMBERS         N/A     50  39  67 N3          N/A
EWING            N/A     49  43  80 CALM        N/A
$$

...OBSERVATIONS IN SOUTHWEST NEBRASKA AND FAR NORTHEAST COLORADO...

CITY           SKY/WX    TMP DP  RH WIND       PRES   REMARKS
WRAY           DRIZZLE   41  41 100 E6        30.01R
HOLYOKE        DRIZZLE   43  41  93 SE6       30.03S
IMPERIAL       LGT RAIN  43  40  89 CALM      30.02R
OGALLALA       LGT RAIN  44  42  92 NE12      30.05R
NORTH PLATTE   LGT RAIN  44  40  85 NE15      30.04S
MCCOOK         LGT RAIN  45  44  97 NE20      30.01R FOG
LEXINGTON      LGT RAIN  45  42  90 NE8       30.04F
STAPLETON        N/A     42  41  96 NE3         N/A
GOTHENBURG       N/A     44  41  90 NE6         N/A
CALLAWAY         N/A     43  41  94 E3          N/A
$$

...OBSERVATIONS IN CENTRAL LINCOLN COUNTY AREA...

CITY           SKY/WX    TMP DP  RH WIND       PRES   REMARKS
N.P. AIRPORT   LGT RAIN  44  40  85 NE15      30.04S
N.P. DOWNTOWN    N/A     42  40  94 E10         N/A
N.P. SOUTHEAST   N/A     42  40  92 NE7G14      N/A
N.P. HILLCREST   N/A     43  42  95 E17G25      N/A
$$

...SOME OBSERVATIONS FROM AROUND THE REGION...

CITY           SKY/WX    TMP DP  RH WIND       PRES   REMARKS
DENVER         LGT RAIN  41  39  93 NW22      29.95R VSB 1/4
LIMON          CLOUDY    39  39 100 SE8       29.94R WCI  33
ASPEN          LGT RAIN  37  33  85 W10       29.95R WCI  30
LARAMIE        LGT SNOW  32  32 100 N12       30.07R FOG     WCI  23
CASPER         CLOUDY    40  35  83 N12       30.13R WCI  33
CHEYENNE       MIX PCPN  35  33  92 N16       30.04R WCI  25
SCOTTSBLUFF    LGT RAIN  42  39  89 E12       30.08R
GRAND ISLAND   LGT RAIN  44  43  96 NE9       30.07F
OMAHA          CLOUDY    50  41  71 NE8       30.10R
SIOUX FALLS    CLOUDY    50  38  63 E6        30.14R
PIERRE         CLOUDY    48  44  86 W9        30.14R
RAPID CITY     CLOUDY    43  42  97 SE5       30.11R
BISMARCK       CLOUDY    50  38  63 SE10      30.14R
KANSAS CITY    CLOUDY    53  49  86 NE15      30.00F
HILL CITY      CLOUDY    46  45  96 NE13      29.99R FOG
WICHITA        TSTM      51  50  96 N15       29.86R FOG
DODGE CITY     CLOUDY    46  44  93 NE21G32   29.81S
OKLAHOMA CITY  CLOUDY    67  60  78 SE24      29.65F THUNDER
DALLAS         CLOUDY    80  63  55 SE15      29.68R
AMARILLO       FOG       46  46 100 N18G26    29.74R VSB 1/2
$$




USA.gov is the U.S. government's official web portal to all federal, state and local government web resources and services.